Time,TemperatureF,DewpointF,PressureIn,WindDirection,WindDirectionDegrees,WindSpeedMPH,WindSpeedGustMPH,Humidity,HourlyPrecipIn,Conditions,Clouds,dailyrainin,SoftwareType,DateUTC
2013-01-23 00:02:00,43.0,34.0,29.94,ENE,58,1.0,4.0,69,0.00,,,0.00,,2013-01-23 08:02:00,
2013-01-23 00:11:00,43.0,34.0,29.94,ENE,58,1.0,4.0,69,0.00,,,0.00,,2013-01-23 08:11:00,
2013-01-23 00:22:00,43.0,34.0,29.94,ENE,61,1.0,7.0,69,0.00,,,0.00,,2013-01-23 08:22:00,
2013-01-23 00:32:00,43.0,34.0,29.94,SE,127,4.0,8.0,69,0.00,,,0.00,,2013-01-23 08:32:00,
2013-01-23 00:42:00,43.0,34.0,29.94,SE,127,4.0,8.0,69,0.00,,,0.00,,2013-01-23 08:42:00,
2013-01-23 00:52:00,43.0,34.0,29.93,ESE,105,3.0,8.0,69,0.00,,,0.00,,2013-01-23 08:52:00,
2013-01-23 01:02:00,43.0,34.0,29.92,SE,135,3.0,9.0,70,0.00,,,0.00,,2013-01-23 09:02:00,
2013-01-23 01:12:00,43.0,34.0,29.92,SE,135,3.0,9.0,70,0.00,,,0.00,,2013-01-23 09:12:00,
2013-01-23 01:22:00,43.0,34.0,29.93,East,85,2.0,7.0,71,0.00,,,0.00,,2013-01-23 09:22:00,
2013-01-23 01:32:00,43.0,34.0,29.92,ENE,78,4.0,10.0,71,0.00,,,0.00,,2013-01-23 09:32:00,
2013-01-23 01:42:00,43.0,34.0,29.92,ENE,78,4.0,10.0,71,0.00,,,0.00,,2013-01-23 09:42:00,
2013-01-23 01:52:00,43.0,34.0,29.93,ESE,119,2.0,10.0,71,0.00,,,0.00,,2013-01-23 09:52:00,
2013-01-23 02:02:00,42.0,33.0,29.95,SE,126,4.0,9.0,71,0.00,,,0.00,,2013-01-23 10:02:00,
2013-01-23 02:12:00,42.0,33.0,29.95,SE,126,4.0,9.0,71,0.00,,,0.00,,2013-01-23 10:12:00,
2013-01-23 02:22:00,42.0,33.0,29.93,ESE,116,5.0,8.0,71,0.00,,,0.00,,2013-01-23 10:22:00,
2013-01-23 02:32:00,42.0,33.0,29.92,SE,128,2.0,8.0,70,0.00,,,0.00,,2013-01-23 10:32:00,
2013-01-23 02:42:00,42.0,33.0,29.92,SE,128,2.0,8.0,70,0.00,,,0.00,,2013-01-23 10:42:00,
2013-01-23 02:52:00,42.0,33.0,29.92,North,8,0.0,8.0,70,0.00,,,0.00,,2013-01-23 10:52:00,
2013-01-23 03:02:00,42.0,33.0,29.92,SSE,148,4.0,9.0,69,0.00,,,0.00,,2013-01-23 11:02:00,
2013-01-23 03:11:00,42.0,33.0,29.92,SSE,148,4.0,9.0,69,0.00,,,0.00,,2013-01-23 11:11:00,
2013-01-23 03:22:00,42.0,33.0,29.92,SE,133,5.0,10.0,69,0.00,,,0.00,,2013-01-23 11:22:00,
2013-01-23 03:32:00,42.0,33.0,29.91,WSW,254,0.0,10.0,70,0.00,,,0.00,,2013-01-23 11:32:00,
2013-01-23 03:42:00,42.0,33.0,29.91,WSW,254,0.0,10.0,70,0.00,,,0.00,,2013-01-23 11:42:00,
2013-01-23 03:52:00,41.0,32.0,29.91,SE,133,2.0,6.0,69,0.00,,,0.00,,2013-01-23 11:52:00,
2013-01-23 04:02:00,41.0,32.0,29.91,ESE,113,4.0,11.0,69,0.00,,,0.00,,2013-01-23 12:02:00,
2013-01-23 04:12:00,41.0,32.0,29.91,ESE,113,4.0,11.0,69,0.00,,,0.00,,2013-01-23 12:12:00,
2013-01-23 04:22:00,41.0,32.0,29.90,NE,39,2.0,9.0,69,0.00,,,0.00,,2013-01-23 12:22:00,
2013-01-23 04:32:00,41.0,32.0,29.90,ENE,68,1.0,9.0,69,0.00,,,0.00,,2013-01-23 12:32:00,
2013-01-23 04:42:00,41.0,32.0,29.90,ENE,68,1.0,9.0,69,0.00,,,0.00,,2013-01-23 12:42:00,
2013-01-23 04:52:00,41.0,32.0,29.90,ESE,112,5.0,10.0,69,0.00,,,0.00,,2013-01-23 12:52:00,
2013-01-23 05:03:00,41.0,32.0,29.91,ESE,116,2.0,9.0,69,0.00,,,0.00,,2013-01-23 13:03:00,
2013-01-23 05:12:00,41.0,32.0,29.91,ESE,116,2.0,9.0,69,0.00,,,0.00,,2013-01-23 13:12:00,
2013-01-23 05:22:00,41.0,32.0,29.91,NE,46,4.0,11.0,69,0.00,,,0.00,,2013-01-23 13:22:00,
2013-01-23 05:33:00,41.0,32.0,29.91,SE,141,5.0,10.0,70,0.00,,,0.00,,2013-01-23 13:33:00,
2013-01-23 05:42:00,41.0,32.0,29.91,SE,141,5.0,10.0,70,0.00,,,0.00,,2013-01-23 13:42:00,
2013-01-23 05:52:00,40.0,31.0,29.91,North,350,4.0,11.0,71,0.00,,,0.00,,2013-01-23 13:52:00,
2013-01-23 06:02:00,40.0,31.0,29.90,SE,133,3.0,10.0,71,0.00,,,0.00,,2013-01-23 14:02:00,
2013-01-23 06:11:00,40.0,31.0,29.90,SE,133,3.0,10.0,71,0.00,,,0.00,,2013-01-23 14:11:00,
2013-01-23 06:23:00,40.0,32.0,29.90,NNE,33,3.0,10.0,72,0.00,,,0.00,,2013-01-23 14:23:00,
2013-01-23 06:33:00,40.0,32.0,29.90,ESE,114,3.0,9.0,72,0.00,,,0.00,,2013-01-23 14:33:00,
2013-01-23 06:42:00,40.0,32.0,29.90,ESE,114,3.0,9.0,72,0.00,,,0.00,,2013-01-23 14:42:00,
2013-01-23 06:52:00,41.0,33.0,29.89,ENE,70,3.0,11.0,73,0.00,,,0.00,,2013-01-23 14:52:00,
2013-01-23 07:02:00,41.0,33.0,29.90,SSE,147,4.0,7.0,73,0.00,,,0.00,,2013-01-23 15:02:00,
2013-01-23 07:12:00,41.0,33.0,29.90,SSE,147,4.0,7.0,73,0.00,,,0.00,,2013-01-23 15:12:00,
2013-01-23 07:22:00,41.0,33.0,29.89,SE,130,5.0,9.0,73,0.00,,,0.00,,2013-01-23 15:22:00,
2013-01-23 07:33:00,40.0,33.0,29.90,SE,141,5.0,12.0,76,0.00,,,0.00,,2013-01-23 15:33:00,
2013-01-23 07:42:00,40.0,33.0,29.90,SE,141,5.0,12.0,76,0.00,,,0.00,,2013-01-23 15:42:00,
2013-01-23 07:52:00,41.0,34.0,29.90,SE,131,6.0,10.0,77,0.00,,,0.00,,2013-01-23 15:52:00,
2013-01-23 08:02:00,41.0,35.0,29.90,ENE,64,5.0,8.0,80,0.00,,,0.00,,2013-01-23 16:02:00,
2013-01-23 08:11:00,41.0,35.0,29.90,ENE,64,5.0,8.0,80,0.00,,,0.00,,2013-01-23 16:11:00,
2013-01-23 08:22:00,40.0,35.0,29.90,ESE,103,6.0,8.0,82,0.00,,,0.00,,2013-01-23 16:22:00,
2013-01-23 08:32:00,41.0,37.0,29.90,East,99,6.0,11.0,87,0.00,,,0.00,,2013-01-23 16:32:00,
2013-01-23 08:42:00,41.0,37.0,29.90,East,99,6.0,11.0,87,0.00,,,0.00,,2013-01-23 16:42:00,
2013-01-23 08:52:00,42.0,39.0,29.90,SE,124,5.0,9.0,88,0.00,,,0.01,,2013-01-23 16:52:00,
2013-01-23 09:02:00,41.0,38.0,29.90,ENE,72,5.0,8.0,90,0.02,,,0.03,,2013-01-23 17:02:00,
2013-01-23 09:11:00,41.0,38.0,29.90,ENE,72,5.0,8.0,90,0.02,,,0.03,,2013-01-23 17:11:00,
2013-01-23 09:22:00,40.0,38.0,29.91,ESE,107,7.0,9.0,92,0.04,,,0.04,,2013-01-23 17:22:00,
2013-01-23 09:33:00,41.0,39.0,29.91,East,91,6.0,9.0,93,0.06,,,0.07,,2013-01-23 17:33:00,
2013-01-23 09:42:00,41.0,39.0,29.91,East,91,6.0,9.0,93,0.06,,,0.07,,2013-01-23 17:42:00,
2013-01-23 09:52:00,42.0,40.0,29.91,East,95,6.0,9.0,93,0.08,,,0.09,,2013-01-23 17:52:00,
2013-01-23 10:03:00,43.0,41.0,29.91,ESE,121,5.0,8.0,93,0.08,,,0.11,,2013-01-23 18:03:00,
2013-01-23 10:12:00,43.0,41.0,29.91,ESE,121,5.0,8.0,93,0.08,,,0.11,,2013-01-23 18:12:00,
2013-01-23 10:22:00,42.0,40.0,29.91,South,176,4.0,8.0,93,0.08,,,0.13,,2013-01-23 18:22:00,
2013-01-23 10:32:00,42.0,40.0,29.91,South,176,4.0,8.0,93,0.08,,,0.13,,2013-01-23 18:32:00,
2013-01-23 10:42:00,41.0,39.0,29.92,SE,130,5.0,7.0,93,0.09,,,0.16,,2013-01-23 18:42:00,
2013-01-23 10:52:00,42.0,40.0,29.93,ESE,105,5.0,8.0,94,0.09,,,0.18,,2013-01-23 18:52:00,
2013-01-23 11:02:00,42.0,40.0,29.93,SE,124,4.0,10.0,94,0.10,,,0.21,,2013-01-23 19:02:00,
2013-01-23 11:12:00,42.0,40.0,29.93,SE,124,4.0,10.0,94,0.10,,,0.21,,2013-01-23 19:12:00,
2013-01-23 11:22:00,42.0,40.0,29.93,ESE,113,4.0,10.0,94,0.10,,,0.23,,2013-01-23 19:22:00,
2013-01-23 11:32:00,42.0,40.0,29.93,ENE,75,3.0,7.0,94,0.11,,,0.26,,2013-01-23 19:32:00,
2013-01-23 11:42:00,42.0,40.0,29.93,ENE,75,3.0,7.0,94,0.11,,,0.26,,2013-01-23 19:42:00,
2013-01-23 11:52:00,42.0,40.0,29.93,ESE,107,3.0,7.0,94,0.10,,,0.27,,2013-01-23 19:52:00,
2013-01-23 12:02:00,42.0,40.0,29.93,East,88,4.0,8.0,94,0.09,,,0.30,,2013-01-23 20:02:00,
2013-01-23 12:12:00,42.0,40.0,29.93,East,88,4.0,8.0,94,0.09,,,0.30,,2013-01-23 20:12:00,
2013-01-23 12:22:00,42.0,40.0,29.92,ESE,116,3.0,10.0,94,0.08,,,0.31,,2013-01-23 20:22:00,
2013-01-23 12:32:00,42.0,40.0,29.92,SE,124,3.0,7.0,94,0.07,,,0.33,,2013-01-23 20:32:00,
2013-01-23 12:42:00,42.0,40.0,29.92,SE,124,3.0,7.0,94,0.07,,,0.33,,2013-01-23 20:42:00,
2013-01-23 12:53:00,42.0,40.0,29.92,ESE,109,2.0,8.0,94,0.06,,,0.34,,2013-01-23 20:53:00,
2013-01-23 13:02:00,42.0,40.0,29.93,East,95,4.0,7.0,94,0.05,,,0.34,,2013-01-23 21:02:00,
2013-01-23 13:11:00,42.0,40.0,29.93,East,95,4.0,7.0,94,0.05,,,0.34,,2013-01-23 21:11:00,
2013-01-23 13:22:00,42.0,40.0,29.93,SE,140,4.0,9.0,94,0.04,,,0.35,,2013-01-23 21:22:00,
2013-01-23 13:33:00,42.0,40.0,29.95,SE,137,3.0,7.0,94,0.03,,,0.37,,2013-01-23 21:33:00,
2013-01-23 13:42:00,42.0,40.0,29.95,SE,137,3.0,7.0,94,0.03,,,0.37,,2013-01-23 21:42:00,
2013-01-23 13:52:00,42.0,40.0,29.95,East,93,4.0,9.0,94,0.04,,,0.38,,2013-01-23 21:52:00,
2013-01-23 14:02:00,42.0,40.0,29.97,East,93,1.0,4.0,94,0.06,,,0.41,,2013-01-23 22:02:00,
2013-01-23 14:12:00,42.0,40.0,29.97,East,93,1.0,4.0,94,0.06,,,0.41,,2013-01-23 22:12:00,
2013-01-23 14:22:00,42.0,40.0,29.98,East,99,1.0,7.0,94,0.08,,,0.44,,2013-01-23 22:22:00,
2013-01-23 14:33:00,46.0,45.0,29.98,NNW,329,12.0,20.0,95,0.14,,,0.51,,2013-01-23 22:33:00,
2013-01-23 14:42:00,46.0,45.0,29.98,NNW,329,12.0,20.0,95,0.14,,,0.51,,2013-01-23 22:42:00,
2013-01-23 14:52:00,46.0,45.0,29.99,West,274,12.0,18.0,95,0.15,,,0.54,,2013-01-23 22:52:00,
2013-01-23 15:02:00,46.0,44.0,30.00,NNW,330,11.0,16.0,94,0.17,,,0.58,,2013-01-23 23:02:00,
2013-01-23 15:12:00,46.0,44.0,30.00,NNW,330,11.0,16.0,94,0.17,,,0.58,,2013-01-23 23:12:00,
2013-01-23 15:22:00,46.0,44.0,30.01,NW,315,8.0,16.0,94,0.16,,,0.59,,2013-01-23 23:22:00,
2013-01-23 15:33:00,46.0,44.0,30.02,North,0,7.0,14.0,94,0.11,,,0.62,,2013-01-23 23:33:00,
2013-01-23 15:42:00,46.0,44.0,30.02,North,0,7.0,14.0,94,0.11,,,0.62,,2013-01-23 23:42:00,
2013-01-23 15:52:00,45.0,43.0,30.02,North,357,4.0,10.0,94,0.11,,,0.64,,2013-01-23 23:52:00,
2013-01-23 16:02:00,45.0,43.0,30.03,North,0,0.0,7.0,94,0.09,,,0.67,,2013-01-24 00:02:00,
2013-01-23 16:11:00,45.0,43.0,30.03,North,0,0.0,7.0,94,0.09,,,0.67,,2013-01-24 00:11:00,
2013-01-23 16:22:00,45.0,43.0,30.03,North,0,0.0,5.0,94,0.10,,,0.68,,2013-01-24 00:22:00,
2013-01-23 16:32:00,43.0,41.0,30.03,ESE,121,1.0,6.0,94,0.07,,,0.68,,2013-01-24 00:32:00,
2013-01-23 16:42:00,43.0,41.0,30.03,ESE,121,1.0,6.0,94,0.07,,,0.68,,2013-01-24 00:42:00,
2013-01-23 16:52:00,43.0,41.0,30.03,SE,126,1.0,6.0,94,0.06,,,0.69,,2013-01-24 00:52:00,
2013-01-23 17:02:00,42.0,40.0,30.03,North,0,0.0,0.0,94,0.03,,,0.69,,2013-01-24 01:02:00,
2013-01-23 17:12:00,42.0,40.0,30.03,North,0,0.0,0.0,94,0.03,,,0.69,,2013-01-24 01:12:00,
2013-01-23 17:22:00,42.0,40.0,30.03,NE,39,1.0,4.0,94,0.01,,,0.69,,2013-01-24 01:22:00,
2013-01-23 17:32:00,42.0,40.0,30.05,East,82,1.0,3.0,94,0.01,,,0.69,,2013-01-24 01:32:00,
2013-01-23 17:42:00,42.0,40.0,30.05,East,82,1.0,3.0,94,0.01,,,0.69,,2013-01-24 01:42:00,
2013-01-23 17:52:00,42.0,41.0,30.06,North,0,0.0,5.0,95,0.00,,,0.69,,2013-01-24 01:52:00,
2013-01-23 18:02:00,41.0,40.0,30.07,North,0,0.0,4.0,95,0.00,,,0.69,,2013-01-24 02:02:00,
2013-01-23 18:11:00,41.0,40.0,30.07,North,0,0.0,4.0,95,0.00,,,0.69,,2013-01-24 02:11:00,
2013-01-23 18:22:00,41.0,40.0,30.07,North,0,0.0,4.0,95,0.00,,,0.69,,2013-01-24 02:22:00,
2013-01-23 18:32:00,41.0,40.0,30.09,ESE,116,3.0,6.0,95,0.00,,,0.69,,2013-01-24 02:32:00,
2013-01-23 18:42:00,41.0,40.0,30.09,ESE,116,3.0,6.0,95,0.00,,,0.69,,2013-01-24 02:42:00,
2013-01-23 18:52:00,41.0,40.0,30.09,ESE,116,3.0,6.0,95,0.00,,,0.69,,2013-01-24 02:52:00,
2013-01-23 19:02:00,40.0,39.0,30.09,East,99,3.0,5.0,95,0.00,,,0.69,,2013-01-24 03:02:00,
2013-01-23 19:11:00,40.0,39.0,30.09,East,99,3.0,5.0,95,0.00,,,0.69,,2013-01-24 03:11:00,
2013-01-23 19:22:00,40.0,39.0,30.10,East,95,4.0,5.0,95,0.00,,,0.69,,2013-01-24 03:22:00,
2013-01-23 19:32:00,40.0,39.0,30.11,North,0,0.0,4.0,95,0.00,,,0.69,,2013-01-24 03:32:00,
2013-01-23 19:42:00,40.0,39.0,30.11,North,0,0.0,4.0,95,0.00,,,0.69,,2013-01-24 03:42:00,
2013-01-23 19:52:00,40.0,39.0,30.13,SE,126,2.0,5.0,96,0.00,,,0.69,,2013-01-24 03:52:00,
2013-01-23 20:02:00,41.0,40.0,30.14,ESE,105,4.0,6.0,96,0.00,,,0.69,,2013-01-24 04:02:00,
2013-01-23 20:12:00,41.0,40.0,30.14,ESE,105,4.0,6.0,96,0.00,,,0.69,,2013-01-24 04:12:00,
2013-01-23 20:22:00,41.0,40.0,30.14,NE,51,4.0,6.0,96,0.00,,,0.70,,2013-01-24 04:22:00,
2013-01-23 20:32:00,41.0,40.0,30.15,North,0,0.0,5.0,96,0.01,,,0.71,,2013-01-24 04:32:00,
2013-01-23 20:42:00,41.0,40.0,30.15,North,0,0.0,5.0,96,0.01,,,0.71,,2013-01-24 04:42:00,
2013-01-23 20:52:00,41.0,40.0,30.15,ESE,121,4.0,5.0,96,0.02,,,0.71,,2013-01-24 04:52:00,
2013-01-23 21:03:00,41.0,40.0,30.16,North,0,0.0,0.0,96,0.02,,,0.72,,2013-01-24 05:03:00,
2013-01-23 21:12:00,41.0,40.0,30.16,North,0,0.0,0.0,96,0.02,,,0.72,,2013-01-24 05:12:00,
2013-01-23 21:22:00,41.0,40.0,30.16,ESE,102,2.0,5.0,96,0.03,,,0.72,,2013-01-24 05:22:00,
2013-01-23 21:32:00,41.0,40.0,30.16,North,0,0.0,0.0,96,0.02,,,0.73,,2013-01-24 05:32:00,
2013-01-23 21:42:00,41.0,40.0,30.16,North,0,0.0,0.0,96,0.02,,,0.73,,2013-01-24 05:42:00,
2013-01-23 21:52:00,41.0,40.0,30.16,North,0,0.0,4.0,96,0.02,,,0.73,,2013-01-24 05:52:00,
2013-01-23 22:02:00,41.0,40.0,30.18,North,0,0.0,4.0,96,0.02,,,0.73,,2013-01-24 06:02:00,
2013-01-23 22:11:00,41.0,40.0,30.18,North,0,0.0,4.0,96,0.02,,,0.73,,2013-01-24 06:11:00,
2013-01-23 22:22:00,41.0,40.0,30.18,North,0,0.0,0.0,96,0.01,,,0.73,,2013-01-24 06:22:00,
2013-01-23 22:32:00,41.0,40.0,30.19,North,0,0.0,4.0,96,0.01,,,0.73,,2013-01-24 06:32:00,
2013-01-23 22:42:00,41.0,40.0,30.19,North,0,0.0,4.0,96,0.01,,,0.73,,2013-01-24 06:42:00,
2013-01-23 22:52:00,41.0,40.0,30.20,North,0,0.0,4.0,96,0.00,,,0.73,,2013-01-24 06:52:00,
2013-01-23 23:02:00,41.0,40.0,30.19,North,0,0.0,0.0,96,0.00,,,0.73,,2013-01-24 07:02:00,
2013-01-23 23:11:00,41.0,40.0,30.19,North,0,0.0,0.0,96,0.00,,,0.73,,2013-01-24 07:11:00,
2013-01-23 23:22:00,41.0,40.0,30.20,North,0,0.0,3.0,96,0.00,,,0.73,,2013-01-24 07:22:00,
2013-01-23 23:32:00,41.0,40.0,30.20,SE,130,3.0,4.0,96,0.00,,,0.73,,2013-01-24 07:32:00,
2013-01-23 23:42:00,41.0,40.0,30.20,SE,130,3.0,4.0,96,0.00,,,0.73,,2013-01-24 07:42:00,
2013-01-23 23:52:00,41.0,40.0,30.21,ESE,110,2.0,5.0,96,0.00,,,0.73,,2013-01-24 07:52:00,